Flag for Germany Weather past 2 weeks in Oberursel (Taunus), Hesse, Germany

Now
62 °F

Partly sunny.


Feels Like: 62 °F
Forecast: 63 / 76 °F
Wind: 2 mph from Northeast

Location: Frankfurt / M-Flughafen

Current Time: Aug 2, 2014 at 9:21:46 AM

Latest Report: Aug 2, 2014 at 8:00 AM


Visibility: 25 mi

Pressure: 29.78 "Hg

Humidity: 84%

Dew point: 57 °F

Location of Oberursel (Taunus)Location

Historic Weather in Oberursel (Taunus) — Graph

°F

Oberursel (Taunus) temperature yesterday

Maximum temperature yesterday: 81 °F (at 6:00 PM)
Minimum temperature yesterday: 60 °F (at 6:00 AM)
Average temperature yesterday: 71 °F

Past Weeks' High & Low Weather Summary

 TemperatureHumidityPressure
High93 °F (Jul 19, 5:00 PM)94% (Jul 29, 4:00 AM)30.10 "Hg (Jul 29, 4:00 AM)
Low59 °F (Jul 26, 5:00 AM)22% (Jul 18, 6:00 PM)29.74 "Hg (Jul 29, 3:00 PM)
Average73 °F66%29.89 "Hg
* Reported Jul 18 8:00 AM — Aug 2 8:00 AM, Oberursel (Taunus), Weather by CustomWeather, © 2014

Note: Actual official high and low records may vary slightly from our data, if they occured in-between our weather recording intervals... More about our weather records

Advertising

Oberursel (Taunus) weather history for previous 24 hours

 ConditionsComfort  
Time TempWeatherWind HumidityBarometerVisibility
8:00 AM
Aug 2
62 °FPartly sunny.2 mph84%29.78 "Hg25 mi
7:00 AM60 °FPartly sunny.2 mph87%29.78 "Hg22 mi
6:00 AM60 °FPartly sunny.2 mph88%29.79 "Hg22 mi
5:00 AM59 °FPassing clouds.2 mph90%29.79 "Hg25 mi
4:00 AM60 °FPassing clouds.2 mph89%29.79 "Hg25 mi
3:00 AM62 °FClear.2 mph84%29.80 "Hg25 mi
2:00 AM62 °FClear.1 mph83%29.82 "Hg25 mi
1:00 AM63 °FClear.1 mph79%29.82 "Hg25 mi
12:00 AM64 °FClear.2 mph75%29.82 "Hg25 mi
10:00 PM
Aug 1
71 °FPassing clouds.2 mph56%29.82 "Hg31 mi
9:00 PM75 °FPassing clouds.1 mph50%29.81 "Hg31 mi
8:00 PM78 °FScattered clouds.2 mph45%29.80 "Hg31 mi
7:00 PM80 °FOvercast.2 mph39%29.80 "Hg31 mi
6:00 PM81 °FOvercast.3 mph37%29.81 "Hg31 mi
5:00 PM81 °FOvercast.2 mph40%29.82 "Hg28 mi
4:00 PM80 °FOvercast.2 mph41%29.83 "Hg28 mi
3:00 PM81 °FOvercast.2 mph41%29.84 "Hg28 mi
2:00 PM78 °FOvercast.2 mph48%29.85 "Hg28 mi
1:00 PM79 °FOvercast.2 mph48%29.86 "Hg25 mi
12:00 PM76 °FOvercast.2 mph56%29.88 "Hg22 mi
11:00 AM72 °FPartly sunny.2 mph67%29.89 "Hg22 mi
10:00 AM69 °FPartly sunny.2 mph71%29.90 "Hg22 mi
9:00 AM65 °FPartly sunny.3 mph74%29.90 "Hg19 mi
Weather by CustomWeather, © 2014

See weather overviewHow to use our weather pages